Вернуться в каталог

CENTISPACE-1 S6

АктивенНавигацияLEO
NORAD 54021·PAYLOAD·🇨🇳 China

Запущен Oct 7, 2022 с Yellow Sea Launch Area

Loading…

Ближайшие Пролёты (ближайшие 24 часа)

TLE

СвежийSource: Space-Track

Эпоха: Sep 14, 2026, 13:16 UTC

1 54021U 22126B   26257.55291967  .00000343  00000-0  10429-3 0  9990
2 54021  54.9982 217.5991 0011772 271.3270  88.6376 14.62381997210073

Отслеживайте CENTISPACE-1 S6 в реальном времени с AllMySat

Download on the App Store